Orbital Elements at Epoch 2459000.5 (2020-May-31.0) TDB
Reference: JPL 18 (heliocentric ecliptic J2000)
Element | Value | Uncertainty (1-sigma) | Units |
e | .03918225754129184 | 4.9829e-08 | |
a | 2.689166214123084 | 1.896e-08 | au |
q | 2.583798610949973 | 1.2705e-07 | au |
i | 3.454949295939434 | 4.7452e-06 | deg |
node | 239.6387443940519 | 7.5913e-05 | deg |
peri | 254.5852400259267 | 0.0001015 | deg |
M | 155.2749430087805 | 6.9835e-05 | deg |
tp | 2458305.757648900475 (2018-Jul-06.25764890) | 0.00030893 | TDB |
period | 1610.737969368863 4.41 | 1.7035e-05 4.664e-08 | d yr |
n | .2235000396377687 | 2.3637e-09 | deg/d |
Q | 2.794533817296196 | 1.9703e-08 | au |
|
| | Orbit Determination Parameters
Additional Information
|